Debrecen, Hungary

3:12 PM CET on February 22, 2017 (GMT +0100)
Debrecen

Weather History for 12882 - March, 2014

Change the Weather History Date:

Friday, March 14, 2014

  Actual Average Record
Temperature  
Mean Temperature 48 °F -  
Max Temperature 64 °F 56 °F - ()
Min Temperature 31 °F 37 °F - ()
Degree Days  
Heating Degree Days 18    
Moisture  
Dew Point 30 °F    
Average Humidity 44    
Maximum Humidity 75    
Minimum Humidity 17    
Precipitation  
Precipitation 0.00 in 0.05 in - ()
Sea Level Pressure  
Sea Level Pressure 30.25 in    
Wind  
Wind Speed 4 mph ()    
Max Wind Speed 9 mph    
Max Gust Speed -    
Visibility 15.0 miles    
Events      
T = Trace of Precipitation, MM = Missing Value Source: Averaged Metar Reports

Daily Weather History Graph

Daily Weather History Graph

Search for Another Location

Airport or City:

Trip Planner

Search our weather history database for the weather conditions in past years. The results will help you decide how hot, cold, wet, or windy it might be!

Date:

Astronomy

Mar. 14, 2014 Rise Set
Actual Time 5:49 AM CET 5:37 PM CET
Civil Twilight 5:18 AM CET 6:07 PM CET
Nautical Twilight 4:42 AM CET 6:43 PM CET
Astronomical Twilight 4:06 AM CET 7:20 PM CET
Moon 3:36 PM CET (3/14) 4:26 AM CET (3/14)
Length of Visible Light 12h 49m
Length of Day
11h 48m
Waxing Gibbous, 95% of the Moon is Illuminated
Mar 14
Waxing Gibbous
Mar 16
Full
Mar 24
Last Quarter
Mar 30
New
Apr 7
First Quarter

Hourly Weather History & Observations

Time (CET) Temp. Windchill Dew Point Humidity Pressure Visibility Wind Dir Wind Speed Gust Speed Precip Events Conditions
12:00 AM 36 °F - 25 °F 54% 30.33 in - Calm Calm - -  
1:00 AM 35 °F - 25 °F 55% 30.33 in - Calm Calm - -  
2:00 AM 33 °F - 25 °F 63% 30.32 in - ESE 2.2 mph - -  
3:00 AM 32 °F - 23 °F 60% 30.32 in - SE 2.2 mph - -  
4:00 AM 34 °F - 24 °F 55% 30.32 in - SE 2.2 mph - -  
5:00 AM 32 °F - 23 °F 59% 30.32 in - SSE 2.2 mph - -  
5:15 AM 32.0 °F - 24.8 °F 75% 30.30 in - SSE 2.3 mph - N/A   Clear
5:45 AM 33.8 °F 30.8 °F 24.8 °F 70% 30.30 in - South 3.5 mph - N/A   Clear
6:00 AM 33 °F - 25 °F 62% 30.31 in 8 mi South 2.2 mph - -   Partly Cloudy
6:00 AM - - - N/A% - - SSE 3.5 mph - N/A   Clear
6:15 AM 32.0 °F 27.5 °F 24.8 °F 75% 30.30 in - South 4.6 mph - N/A   Clear
6:45 AM 35.6 °F 32.8 °F 26.6 °F 70% 30.30 in - South 3.5 mph - N/A   Clear
7:00 AM 35 °F - 27 °F 62% 30.31 in 11 mi South 4.5 mph - -   Partly Cloudy
7:15 AM 37.4 °F 32.8 °F 28.4 °F 70% 30.30 in - South 5.8 mph - N/A   Clear
7:45 AM 41.0 °F 37.1 °F 30.2 °F 65% 30.30 in - South 5.8 mph - N/A   Clear
8:00 AM 41 °F - 30 °F 55% 30.31 in 12 mi South 6.7 mph - -   Partly Cloudy
8:15 AM 42.8 °F 39.3 °F 30.2 °F 61% 30.30 in - South 5.8 mph - N/A   Clear
8:45 AM 46.4 °F 43.5 °F 32.0 °F 57% 30.30 in - SSW 5.8 mph - N/A   Clear
9:00 AM 47 °F - 31 °F 42% 30.31 in 12 mi SSW 4.5 mph - -   Partly Cloudy
9:00 AM - - - N/A% - - SSW 9.2 mph - N/A   Clear
9:15 AM 50.0 °F - 32.0 °F 50% 30.30 in - SSW 8.1 mph - N/A   Clear
9:45 AM 51.8 °F - 32.0 °F 47% 30.27 in - SSW 9.2 mph - N/A   Clear
10:00 AM 52 °F - 32 °F 33% 30.29 in 16 mi SSW 8.9 mph - -   Partly Cloudy
10:15 AM 55.4 °F - 33.8 °F 44% 30.27 in - SSW 6.9 mph - N/A   Clear
10:45 AM 57.2 °F - 32.0 °F 38% 30.27 in - SW 8.1 mph - N/A   Clear
11:00 AM 57 °F - 32 °F 27% 30.28 in 16 mi SW 6.7 mph - -   Partly Cloudy
11:15 AM 59.0 °F - 32.0 °F 36% 30.27 in - SW 8.1 mph - N/A   Clear
11:45 AM 60.8 °F - 33.8 °F 36% 30.27 in - WSW 8.1 mph - N/A   Clear
12:00 PM 60 °F - 33 °F 24% 30.26 in 19 mi WSW 8.9 mph - -   Partly Cloudy
12:00 PM - - - N/A% - - SW 9.2 mph - N/A   Clear
12:15 PM 60.8 °F - 32.0 °F 34% 30.24 in - West 8.1 mph - N/A   Clear
12:45 PM 62.6 °F - 32.0 °F 32% 30.24 in - West 8.1 mph - N/A   Clear
1:00 PM 62 °F - 32 °F 21% 30.23 in 19 mi West 8.9 mph - -   Partly Cloudy
1:15 PM 62.6 °F - 32.0 °F 32% 30.21 in - WSW 8.1 mph - N/A   Clear
1:45 PM 62.6 °F - 32.0 °F 32% 30.21 in - West 9.2 mph - N/A   Clear
2:00 PM 63 °F - 31 °F 19% 30.21 in 19 mi West 8.9 mph - -   Partly Cloudy
2:15 PM 62.6 °F - 32.0 °F 32% 30.21 in - West 8.1 mph - N/A   Clear
2:45 PM 64.4 °F - 30.2 °F 28% 30.18 in - West 8.1 mph - N/A   Clear
3:00 PM 64 °F - 30 °F 17% 30.19 in 16 mi West 6.7 mph - -   Partly Cloudy
3:15 PM 64.4 °F - 32.0 °F 30% 30.18 in - WSW 5.8 mph - N/A   Clear
3:45 PM 64.4 °F - 32.0 °F 30% 30.18 in - WSW 6.9 mph - N/A   Clear
4:00 PM 64 °F - 33 °F 20% 30.17 in 16 mi WSW 6.7 mph - -   Partly Cloudy
4:15 PM 62.6 °F - 33.8 °F 34% 30.18 in - West 6.9 mph - N/A   Clear
4:45 PM 62.6 °F - 32.0 °F 32% 30.15 in - WSW 4.6 mph - N/A   Clear
5:00 PM 62 °F - 32 °F 21% 30.16 in 16 mi WSW 4.5 mph - -   Partly Cloudy
5:00 PM - - - N/A% - - North - - N/A   Unknown
6:00 PM 57 °F - 32 °F 27% 30.16 in - SSW 6.7 mph - -  
7:00 PM 51 °F - 32 °F 37% 30.17 in - Calm Calm - -  
8:00 PM 48 °F - 32 °F 41% 30.17 in - SSE 2.2 mph - -  
9:00 PM 46 °F - 31 °F 45% 30.16 in - South 4.5 mph - -  
10:00 PM 45 °F - 31 °F 46% 30.14 in - South 2.2 mph - -  
11:00 PM 43 °F - 31 °F 50% 30.13 in - SSE 2.2 mph - -